Location: Crescent
(42.8242°N, 73.7329°W)
Time: 12:10:16
(UTC+00:00)

Transit 4A - Pass Details

Date: 25 February 2026
Orbit: 863 x 978 km, 66.8° (Epoch: 17 March)

Event Time Altitude Azimuth Distance (km) Brightness Sun altitude
Rises 15:34:08 0° 330° (NNW) 3,617 10.5 34.0°
Reaches altitude 10° 15:36:40 10° 332° (NNW) 2,684 9.9 34.2°
Maximum altitude 15:42:58 77° 58° (ENE) 996 8.7 34.7°
Drops below altitude 10° 15:49:21 10° 145° (SE) 2,716 11.7 35.2°
Sets 15:51:55 0° 146° (SSE) 3,663 12.0 35.4°
